EW5412 Weather Reports


time (UTC)temp
F
wind
direction
speed
knots
gust
knots
rain 1hr
in
rain 24hr
in
rain mn
in
humidity
%
barometer
mb
20260507104528 37 285 0.0 1.7 0.00 0.00 0.00 79 1015.0
20260507103027 37 285 0.0 1.7 0.00 0.00 0.00 79 1015.0
20260507101526 38 285 0.0 0.0 0.00 0.00 0.00 77 1014.8
20260507100033 38 285 0.0 0.9 0.00 0.00 0.00 76 1014.8
20260507094522 38 285 0.0 0.0 0.00 0.00 0.00 76 1014.9
20260507093027 38 356 0.0 0.0 0.00 0.00 0.00 76 1014.8
20260507091522 38 356 0.0 0.0 0.00 0.00 0.00 75 1014.7
20260507090019 38 356 0.0 1.7 0.00 0.00 0.00 74 1014.8
20260507084539 39 6 0.0 0.0 0.00 0.00 0.00 72 1014.9
20260507083023 39 356 0.0 1.7 0.00 0.00 0.00 72 1014.8
20260507081517 40 342 0.0 2.6 0.00 0.00 0.00 71 1014.8
20260507080017 40 15 0.0 3.5 0.00 0.00 0.00 70 1014.7
20260507074516 41 340 0.9 4.3 0.00 0.00 0.00 70 1014.7
20260507073020 40 4 0.0 4.3 0.00 0.00 0.00 72 1014.8
20260507071517 40 344 1.7 3.5 0.00 0.00 0.00 74 1014.8
20260507070019 39 4 2.6 4.3 0.00 0.00 0.00 77 1014.7
20260507064512 38 30 0.0 0.0 0.00 0.00 0.00 78 1014.7
20260507063013 39 30 0.0 0.9 0.00 0.00 0.00 79 1014.8
20260507061507 39 12 0.0 0.0 0.00 0.00 0.00 77 1014.8
20260507060007 40 11 0.0 0.0 0.00 0.00 0.00 76 1014.9
20260507054508 40 12 0.0 0.0 0.00 0.00 0.00 76 1014.9
20260507053003 39 15 0.0 0.9 0.00 0.00 0.00 78 1014.9
20260507051607 40 319 0.0 0.0 0.00 0.00 0.00 74 1014.9
20260507050108 41 319 0.0 0.0 0.00 0.00 0.00 72 1014.8
20260507044555 42 319 0.0 0.0 0.00 0.00 0.00 68 1014.9
20260507043048 43 319 0.0 0.0 0.00 0.00 0.00 68 1014.6
20260507041546 43 4 0.0 0.9 0.00 0.00 0.00 68 1014.6
20260507040045 44 32 0.0 0.0 0.00 0.00 0.00 65 1014.5
20260507034542 45 336 0.0 0.0 0.00 0.00 0.00 62 1014.6
20260507033045 46 335 0.0 1.7 0.00 0.00 0.00 62 1014.5
20260507031538 46 349 0.0 0.0 0.00 0.00 0.00 61 1014.4
20260507030039 47 332 0.9 3.5 0.00 0.00 0.00 59 1014.4
20260507024543 48 291 0.0 4.3 0.00 0.00 0.00 59 1014.3
20260507023038 48 345 0.9 3.5 0.00 0.00 0.00 59 1014.1
20260507021547 49 336 0.9 3.5 0.00 0.00 0.00 58 1014.1
20260507020034 49 334 0.9 1.7 0.00 0.00 0.00 58 1014.0
20260507014533 50 335 0.0 3.5 0.00 0.00 0.00 56 1013.9
20260507013036 51 304 1.7 3.5 0.00 0.00 0.00 54 1013.8
20260507011536 51 342 1.7 3.5 0.00 0.00 0.00 53 1013.6
20260507010040 52 338 3.5 7.8 0.00 0.00 0.00 51 1013.6
20260507004531 52 326 3.5 7.8 0.00 0.00 0.00 51 1013.4
20260507003031 53 341 3.5 9.6 0.00 0.00 0.00 50 1013.2
20260507001533 53 15 4.3 12.2 0.00 0.00 0.00 49 1013.0
20260507000033 53 328 2.6 6.1 0.00 0.00 0.00 50 1012.9
20260506234529 54 307 3.5 7.8 0.00 0.04 0.00 48 1013.0
20260506233029 54 338 3.5 7.8 0.00 0.04 0.00 47 1012.9
20260506231529 54 339 3.5 7.8 0.00 0.04 0.00 46 1013.1
20260506230029 54 20 3.5 7.8 0.00 0.04 0.00 48 1013.1
20260506224527 54 341 5.2 11.3 0.00 0.04 0.00 45 1013.1
20260506223026 55 325 4.3 7.8 0.00 0.04 0.00 45 1013.0
20260506221525 55 338 2.6 7.0 0.00 0.04 0.00 43 1013.0
20260506220031 55 22 2.6 6.1 0.00 0.04 0.00 44 1013.0
20260506214524 55 25 5.2 7.8 0.00 0.08 0.00 44 1012.9
20260506213029 56 5 6.1 10.4 0.00 0.08 0.00 44 1012.8
20260506211527 56 57 3.5 7.8 0.00 0.08 0.00 45 1012.9
20260506210030 56 345 5.2 10.4 0.00 0.08 0.00 44 1013.0
20260506204528 55 8 3.5 8.7 0.00 0.12 0.00 45 1013.2
20260506203027 55 69 3.5 8.7 0.00 0.12 0.00 44 1013.2
20260506201523 55 49 4.3 10.4 0.00 0.12 0.00 42 1013.2
20260506200021 56 316 6.1 8.7 0.00 0.12 0.00 42 1013.2
20260506194518 56 20 6.1 13.0 0.00 0.12 0.00 44 1013.3
20260506193018 56 333 6.1 12.2 0.00 0.12 0.00 42 1013.4
20260506191514 55 322 2.6 6.1 0.00 0.12 0.00 44 1013.4
20260506190012 54 349 4.3 10.4 0.00 0.12 0.00 44 1013.5
20260506184512 54 342 7.0 10.4 0.00 0.12 0.00 42 1013.6
20260506183010 54 53 0.9 10.4 0.00 0.12 0.00 44 1013.8
20260506181508 53 320 4.3 10.4 0.00 0.12 0.00 43 1013.8
20260506180008 53 37 1.7 8.7 0.00 0.12 0.00 45 1013.9
20260506174507 54 323 0.9 4.3 0.00 0.12 0.00 45 1013.9
20260506173006 53 342 4.3 7.0 0.00 0.12 0.00 43 1013.7
20260506171510 53 22 5.2 8.7 0.00 0.12 0.00 46 1013.6
20260506170002 54 19 0.9 5.2 0.00 0.14 0.00 44 1013.7
20260506164501 54 46 3.5 7.0 0.00 0.14 0.00 43 1013.8
20260506163104 53 57 2.6 6.1 0.00 0.14 0.00 42 1013.9
20260506161605 54 96 0.0 5.2 0.00 0.14 0.00 47 1013.9
20260506160056 53 79 3.5 7.8 0.00 0.14 0.00 46 1013.9
20260506154550 52 54 2.6 5.2 0.00 0.14 0.00 48 1013.9
20260506153051 51 87 1.7 6.1 0.00 0.14 0.00 49 1014.0
20260506151602 51 101 3.5 6.1 0.00 0.14 0.00 50 1014.0
20260506150047 51 89 2.6 7.0 0.00 0.14 0.00 49 1013.9
20260506144545 51 34 3.5 10.4 0.00 0.14 0.00 50 1013.9
20260506143048 51 92 2.6 7.0 0.00 0.14 0.00 52 1013.5
20260506141537 50 43 1.7 5.2 0.00 0.14 0.00 52 1013.5
20260506140037 49 101 4.3 7.0 0.00 0.14 0.00 50 1013.2
20260506134532 49 124 3.5 7.8 0.00 0.14 0.00 51 1013.3
20260506133030 48 101 2.6 5.2 0.00 0.14 0.00 58 1013.2
20260506131527 47 101 2.6 5.2 0.00 0.14 0.00 60 1012.9
20260506130020 46 91 4.3 7.0 0.00 0.14 0.00 61 1012.6
20260506124516 45 77 2.6 6.1 0.00 0.14 0.00 69 1012.6
20260506123016 43 83 2.6 6.1 0.00 0.14 0.00 76 1012.4
20260506121509 42 97 1.7 6.1 0.00 0.14 0.00 89 1012.4
20260506120008 40 105 0.0 4.3 0.00 0.14 0.00 93 1012.4
20260506114508 39 98 0.0 0.0 0.00 0.14 0.00 93 1012.2
20260506113007 38 98 0.0 0.0 0.00 0.14 0.00 93 1011.9
20260506111501 39 99 0.0 0.0 0.00 0.14 0.00 92 1011.5
20260506110103 40 99 0.0 1.7 0.00 0.14 0.00 92 1011.0